Location: ??????????
(54.8537°N, 38.8755°E)
Time: 00:47:04
(UTC+00:00)

Transit 4A - Pass Details

Date: 17 September 2024
Orbit: 865 x 977 km, 66.8° (Epoch: 09 October)

Event Time Altitude Azimuth Distance (km) Brightness Sun altitude
Exits shadow 22:23:32 14° 103° (ESE) 2,260 9.9 -31.8°
Maximum altitude 22:23:37 14° 102° (ESE) 2,260 9.9 -31.8°
Drops below altitude 10° 22:26:39 10° 72° (ENE) 2,586 10.6 -31.7°
Sets 22:30:24 0° 49° (NE) 3,558 11.8 -31.5°
